Location: Middle Street
(51.7167°N, 0.0333°E)
Time: 07:06:15
(UTC+00:00)

Daily predictions for brighter satellites

Satellite Brightness Start Highest point End
(mag) Time Altitude Azimuth Time Altitude Azimuth Time Altitude Azimuth
Cosmos 2082 4.1 16:56:10 10° SW 17:01:53 69° WNW 17:07:36 10° NNE
FengYun 1-2 T 4.4 16:57:36 10° SE 17:03:02 57° ENE 17:08:32 10° N
Tsikada Rocket 4.0 16:57:47 10° S 17:04:04 73° E 17:10:19 10° NNE
NOAA 12 4.1 16:59:41 10° SSE 17:04:54 75° ENE 17:10:09 10° NNW
SL-14 R/B 3.8 17:02:15 10° SSE 17:05:50 37° E 17:09:29 10° NNE
ATLAS 3B R/B 3.4 16:59:33 10° NW 17:06:23 63° SW 17:13:29 10° SSE
RESURS DK-1 2.5 17:02:44 10° SSW 17:06:48 59° ESE 17:10:54 10° NE
Cosmos 2228 3.3 17:03:03 10° N 17:07:10 44° ENE 17:11:15 10° SSE
Cosmos 1400 Rocket 3.6 17:03:26 10° NNW 17:07:30 59° W 17:11:31 10° S
Cosmos 1538 Rocket 4.4 17:08:23 10° NNW 17:13:18 41° NE 17:18:11 10° SE
CZ-4C R/B 2.3 17:09:07 10° SW 17:14:15 79° NW 17:20:35 10° NE
Meteor 2-5 Rocket 3.9 17:09:23 10° S 17:14:45 51° E 17:20:07 10° NNE
CZ-3B R/B 1.2 17:13:15 10° WNW 17:15:12 49° NNE 17:18:52 10° E
SJ 16-02 3.3 17:16:51 10° ESE 17:17:45 11° E 17:18:40 10° E
CORIOLIS 4.2 17:16:15 10° SSE 17:21:40 85° ENE 17:27:05 10° NNW
Cosmos 2263 Rocket 2.3 17:16:37 10° SSW 17:22:13 63° ESE 17:27:50 10° NE
Cosmos 1455 3.6 17:21:44 10° NNE 17:24:27 18° ENE 17:27:10 10° ESE
Cosmos 968 Rocket 3.8 17:19:49 10° SW 17:24:54 67° WNW 17:30:01 10° NNE
Envisat 4.3 17:20:13 10° S 17:25:04 45° W 17:29:58 10° NNW
Cosmos 2058 Rocket 3.7 17:22:24 10° N 17:26:32 34° ENE 17:30:39 10° SE
Cosmos 1354 Rocket 4.1 17:21:37 10° SSW 17:26:53 67° ESE 17:32:13 10° NNE
NOAA 11 4.2 17:21:37 10° SSE 17:27:08 85° ENE 17:32:41 10° NNW
USA-17 4.3 17:24:43 10° SW 17:28:16 73° SE 17:30:59 13° NE
Cosmos 1300 2.6 17:25:08 10° N 17:28:59 80° E 17:32:48 10° SSE
NOSS 7 (H) 4.0 17:29:56 10° SW 17:33:09 86° SE 17:35:34 14° NE
Landsat 5 3.4 17:30:04 10° NNE 17:34:04 81° WNW 17:37:56 10° SSW
GENESIS II 4.4 17:32:09 10° SSW 17:36:06 60° SE 17:39:28 14° NE
ADEOS Rocket 4.1 17:32:05 10° N 17:37:54 42° WNW 17:43:12 10° SW
ARGOS 4.1 17:35:03 10° ESE 17:39:25 26° ENE 17:43:48 10° N
NOSS 3-1 (C) 4.3 17:32:48 10° NW 17:39:26 46° NNE 17:47:11 10° E
Lacrosse 5 1.8 17:34:24 10° WNW 17:39:29 76° NNE 17:44:33 10° ESE
CREW DRAGON DEMO-1 DEB 2.6 17:36:49 10° W 17:39:43 84° S 17:41:52 17° E
Cosmos 1943 4.0 17:35:51 10° NW 17:41:24 55° WSW 17:46:53 10° S
Okean 1-7 Rocket 4.5 17:38:08 10° SSE 17:42:02 29° E 17:45:58 10° NNE
Cosmos 1726 Rocket 3.5 17:37:51 10° N 17:42:13 70° ENE 17:46:35 10° SSE
ERS-2 3.4 17:42:03 17° ENE 17:43:26 21° E 17:46:14 10° SE
ISS -1.3 17:43:11 10° SSE 17:44:00 11° SE 17:44:48 10° ESE
CZ-2C R/B 4.4 17:45:49 13° E 17:45:49 13° E 17:47:15 10° ESE
Cosmos 1939 Rocket 2.8 17:42:04 10° SSE 17:46:11 78° ENE 17:50:17 10° N
Meteor 1-24 Rocket 3.5 17:43:30 10° S 17:48:49 74° E 17:54:08 10° NNE
COSMOS 2455 3.4 17:44:01 10° S 17:49:34 40° ESE 17:54:02 15° NE
Cosmos 1833 Rocket 3.9 17:48:18 10° NNW 17:52:36 22° NE 17:54:41 18° ENE
Cosmos 2082 Rocket 3.8 17:50:31 10° NNW 17:54:12 17° NNE 17:55:56 15° NE
Cosmos 1315 Rocket 3.7 17:50:54 10° NNW 17:54:46 52° W 17:58:39 10° S
USA 229 DEB 4.3 17:49:38 10° NW 17:56:23 44° NNE 18:01:49 17° E
USA 229 4.3 17:49:44 10° NW 17:56:28 44° NNE 18:01:52 18° E
IRS-1C Rocket 4.0 17:51:55 10° SSE 17:57:07 65° ENE 18:02:20 10° N
CZ-4 R/B 1.6 17:54:36 10° SE 17:58:31 45° ENE 18:02:23 10° N
Feng Yun 1-1 Rocket 4.2 17:54:22 10° SSE 17:59:49 87° ENE 18:05:25 10° NNW
COSMO-SKYMED 1 2.7 17:56:48 10° NNE 18:01:05 53° E 18:05:20 10° S
NOSS 3-4 (A) 4.2 17:55:56 10° WSW 18:01:42 45° NNW 18:07:06 14° NE
NOSS 3-4 (C) 4.2 17:56:03 10° WSW 18:01:50 46° NNW 18:07:15 14° NE
Cosmos 2279 Rocket 4.2 17:55:40 10° NNW 18:01:58 79° W 18:08:13 10° S
Cosmos 2227 4.4 18:00:55 10° SW 18:06:33 71° NW 18:12:16 10° NNE
Cosmos 2227 Rocket 4.2 18:05:52 10° W 18:10:09 21° NW 18:14:25 10° NNE
CZ-4B R/B 1.2 18:08:14 12° NNE 18:11:19 78° ESE 18:14:38 10° S
CZ-4 R/B 4.4 18:07:49 10° SSE 18:11:57 86° ENE 18:16:08 10° NNW
NOSS 3-1 (A) 4.3 18:05:19 10° NW 18:11:58 46° NNE 18:16:57 22° E
Okean-O 2.6 18:10:17 10° SSE 18:14:39 61° ENE 18:19:03 10° N
CSL-04 DEB 4.5 18:10:45 10° NNE 18:15:01 84° WNW 18:19:09 10° SSW
Cosmos 923 Rocket 4.1 18:09:48 10° NNW 18:15:06 59° ENE 18:20:21 10° SE
CZ-2C R/B 3.2 18:10:53 10° SSE 18:16:13 89° W 18:21:53 10° NNW
Cosmos 1844 Rocket 3.1 18:11:28 10° S 18:16:42 40° ESE 18:19:24 25° ENE
Okean O Rocket 3.5 18:13:44 10° SSW 18:17:45 33° W 18:21:47 10° NNW
Cosmos 1689 Rocket 4.3 18:20:00 14° SSE 18:20:00 14° SSE 18:20:35 10° SSE
Cosmos 1626 4.2 18:15:24 10° SW 18:18:36 27° WNW 18:21:49 10° N
H-2A R/B 1.9 18:13:44 10° SSE 18:18:39 61° ENE 18:23:43 10° N
SeaSat 1 4.5 18:15:02 10° NNE 18:18:45 22° NW 18:22:27 10° W
ATLAS 2AS CENTAUR R/B 3.6 18:11:39 10° WSW 18:19:23 53° NNW 18:25:31 16° NE
Meteor 1-21 Rocket 4.5 18:14:36 10° SSE 18:19:46 43° E 18:24:59 10° NNE
Aureole 2 Rocket 2.8 18:17:10 10° S 18:19:28 35° SE 18:19:28 35° SE
Cosmos 158 Rocket 4.0 18:15:13 10° NNW 18:20:32 69° ENE 18:25:54 10° SSE
Cosmos 1680 Rocket 3.6 18:17:19 10° NNW 18:22:29 52° ENE 18:26:36 16° SE
SKYMED 3 4.5 18:20:44 10° NNE 18:25:07 89° ESE 18:29:28 10° SSW
SAR-Lupe-4 3.6 18:31:27 52° ESE 18:31:27 52° ESE 18:34:54 10° S
Meteor 2-10 Rocket 4.0 18:26:27 10° NNW 18:31:59 65° W 18:37:15 10° S
CZ-2D R/B 4.1 18:28:29 10° S 18:32:15 51° W 18:36:01 10° NNW
Cosmos 1818 3.9 18:28:11 10° SSW 18:33:20 46° ESE 18:34:52 36° E
H-2A R/B 3.7 18:29:20 10° N 18:33:26 35° WNW 18:37:26 10° SW
Cosmos 489 Rocket 4.5 18:27:46 10° NNW 18:34:12 88° WSW 18:40:32 10° SSE
Cosmos 2297 Rocket 4.4 18:31:47 10° WNW 18:35:07 16° NNW 18:38:27 10° NNE
YAOGAN 1 2.5 18:32:15 10° SSE 18:36:35 89° WSW 18:40:58 10° NNW
Cosmos 1892 Rocket 4.0 18:33:48 10° SSW 18:38:05 61° WNW 18:42:25 10° N
CSL-04 Rocket 3.6 18:35:10 10° SSE 18:40:31 67° ENE 18:45:59 10° NNW
Helios 1A Rocket 2.8 18:37:21 10° SSE 18:41:30 85° ENE 18:45:40 10° NNW
SAR-Lupe-1 4.0 18:42:35 65° SE 18:42:35 65° SE 18:45:53 10° S
APEX 4.5 18:35:46 10° SSW 18:42:45 77° ESE 18:46:31 26° NE
USA 234 3.3 18:40:20 33° E 18:43:25 66° NNE 18:49:55 10° WNW
RESURS DK-1 4.4 18:41:46 10° W 18:45:10 24° NW 18:47:47 14° N
Iridium 4 Rocket 3.7 18:39:30 10° N 18:45:13 59° E 18:50:31 10° SSE
MOS 1 Rocket 3.1 18:40:59 10° N 18:45:20 76° WNW 18:49:37 10° SSW
ATLAS 5 CENTAUR R/B 2.4 18:41:40 10° WSW 18:45:41 45° NNW 18:47:37 29° NNE
Meteor 2-1 Rocket 4.3 18:40:48 10° NNW 18:46:24 76° W 18:51:54 10° S
Cosmos 1092 Rocket 3.9 18:40:47 10° S 18:46:50 58° E 18:52:52 10° NNE
Cosmos 1812 Rocket 3.4 18:43:53 10° N 18:48:17 63° ENE 18:48:54 56° ESE
SKYMED 2 4.2 18:44:51 10° N 18:49:08 55° WNW 18:53:22 10° SSW
Cosmos 2344 4.2 18:42:54 10° NW 18:51:40 72° NE 18:59:36 24° ESE
SJ 16-02 1.2 18:51:07 10° SSW 18:55:31 79° ESE 18:56:00 68° NE
SJ-11-01 4.4 18:51:05 10° S 18:55:46 73° WSW 19:00:29 10° NNW
Aureole 3 3.8 18:52:27 10° NNW 18:56:03 50° W 18:59:07 10° S
Cosmos 2112 Rocket 3.9 18:54:43 10° NNW 19:00:02 84° ENE 19:02:18 35° SSE
Cosmos 1455 3.2 18:56:39 10° NNW 19:00:19 46° W 19:03:59 10° SSW
CZ-4C R/B 3.6 18:58:37 10° W 19:03:44 34° NNW 19:06:29 24° NNE
MetOp-A 4.4 19:04:29 48° NE 19:04:29 48° NE 19:08:56 10° N
Nadezhda 4 Rocket 4.2 18:58:00 10° SSW 19:04:15 72° WNW 19:10:28 10° N
Cosmos 2263 Rocket 3.7 19:01:30 10° WSW 19:06:33 32° NW 19:10:38 15° NNE
X-37B 3.4 19:04:58 10° SSW 19:05:31 13° SSW 19:05:31 13° SSW
COSMOS 2406 3.2 19:09:02 10° NNW 19:14:48 63° NE 19:14:48 63° NE
ERS-2 3.4 19:16:37 36° NW 19:17:08 38° WNW 19:20:31 10° SW
ARGOS 3.5 19:14:00 10° S 19:19:18 63° WSW 19:24:40 10° NNW
ISS -1.3 19:16:55 10° SW 19:17:58 18° SW 19:17:58 18° SW
Lacrosse 5 3.2 19:17:39 10° WNW 19:22:11 34° SW 19:24:15 24° S
CZ-2C R/B 3.1 19:27:19 50° S 19:27:19 50° S 19:31:28 10° S
Cosmos 1626 Rocket 4.3 19:26:34 10° SSW 19:30:50 51° WNW 19:31:14 49° NW
NOSS 3-1 (C) 4.1 19:23:38 10° NW 19:30:56 77° SW 19:34:39 37° SSE
CZ-4 R/B 3.9 19:30:33 10° SW 19:33:44 22° W 19:36:55 10° NW
COSMOS 2455 3.4 19:29:30 10° WSW 19:35:24 53° NW 19:37:13 40° N
Cosmos 1553 Rocket 3.9 19:29:02 10° N 19:35:31 83° E 19:36:14 71° SSE
Cosmos 1833 Rocket 2.9 19:31:50 10° NNW 19:36:25 58° N 19:36:25 58° N
Cosmos 1844 3.8 19:32:54 10° SW 19:38:34 72° WNW 19:39:07 67° NNW
Cosmos 2082 Rocket 3.2 19:34:08 10° NNW 19:37:48 36° N 19:37:48 36° N
Cosmos 2026 Rocket 4.0 19:35:09 10° SSW 19:41:16 78° WNW 19:47:31 10° N
USA 281 3.8 19:43:33 43° NNE 19:43:33 43° NNE 19:48:26 10° NNW
USA 229 DEB 3.9 19:40:43 10° NW 19:47:59 79° SW 19:49:18 63° SSE
USA 229 3.8 19:40:49 10° NW 19:48:04 80° SW 19:49:21 64° SSE
USA 267 4.0 19:51:35 39° S 19:51:35 39° S 19:56:02 10° SSW
H-2A R/B 4.3 19:54:38 10° SW 19:58:32 22° W 20:02:31 10° NW
Cosmos 1844 Rocket 3.5 19:55:10 10° WSW 20:00:35 45° NW 20:01:07 44° NNW
NOSS 3-1 (A) 4.0 19:56:12 10° NW 20:03:32 77° SW 20:04:27 69° S
ATLAS 2AS CENTAUR R/B 4.0 20:05:00 10° WNW 20:12:02 34° N 20:12:56 33° N
USA 234 3.7 20:27:40 57° W 20:27:40 57° W 20:33:02 10° WNW
ATLAS 5 CENTAUR R/B 4.3 20:27:52 10° WNW 20:29:10 16° NW 20:29:10 16° NW
SJ 16-02 4.2 20:31:37 10° W 20:33:02 15° WNW 20:33:02 15° WNW
CZ-4C R/B 4.3 20:48:31 10° NW 20:51:41 25° NNW 20:51:41 25° NNW
